Weather History for KDEC - December, 2013

Change the Weather History Date:

Wednesday, December 18, 2013

  Actual Average Record
Temperature  
Mean Temperature 26 °F 30 °F  
Max Temperature 40 °F 38 °F 57 °F (2002)
Min Temperature 12 °F 22 °F 3 °F (2000)
Degree Days  
Heating Degree Days 39 35  
Month to date heating degree days 671 586  
Since 1 July heating degree days 1819 1667  
Cooling Degree Days 0 0  
Month to date cooling degree days 0 0  
Year to date cooling degree days 1079 1048  
Moisture  
Dew Point 18 °F    
Average Humidity 66    
Maximum Humidity 80    
Minimum Humidity 52    
Precipitation  
Precipitation 0.00 in 0.07 in 1.56 in (2002)
Month to date precipitation 0.46 1.40  
Year to date precipitation 32.48 37.31  
Sea Level Pressure  
Sea Level Pressure 30.12 in    
Wind  
Wind Speed 14 mph (SSW)    
Max Wind Speed 29 mph    
Max Gust Speed 35 mph    
Visibility 10 miles    
Events      
T = Trace of Precipitation, MM = Missing Value Source: NWS Daily Summary

Daily Weather History Graph

Daily Weather History Graph

Search for Another Location

Airport or City:

Trip Planner

Search our weather history database for the weather conditions in past years. The results will help you decide how hot, cold, wet, or windy it might be!

Date:

Astronomy

Dec. 18, 2013 Rise Set
Actual Time 7:11 AM CST 4:32 PM CST
Civil Twilight 6:41 AM CST 5:03 PM CST
Nautical Twilight 6:07 AM CST 5:37 PM CST
Astronomical Twilight 5:34 AM CST 6:10 PM CST
Moon 6:04 PM CST (12/18) 7:51 AM CST (12/18)
Length of Visible Light 10h 21m
Length of Day
9h 21m
Full, 98% of the Moon is Illuminated
Dec 18
Full
Dec 25
Last Quarter
Jan 1
New
Jan 7
First Quarter
Jan 15
Full

Hourly Weather History & Observations

Time (CST) Temp. Windchill Dew Point Humidity Pressure Visibility Wind Dir Wind Speed Gust Speed Precip Events Conditions
12:54 AM 25.0 °F 15.5 °F 10.9 °F 55% 30.24 in 10.0 mi WNW 9.2 mph - N/A   Clear
1:54 AM 23.0 °F 14.7 °F 10.9 °F 60% 30.24 in 10.0 mi West 6.9 mph - N/A   Clear
2:54 AM 19.0 °F 11.1 °F 9.0 °F 65% 30.25 in 10.0 mi WSW 5.8 mph - N/A   Clear
3:54 AM 17.1 °F 11.7 °F 9.0 °F 71% 30.25 in 10.0 mi WSW 3.5 mph - N/A   Clear
4:54 AM 15.1 °F 7.7 °F 8.1 °F 74% 30.27 in 10.0 mi WSW 4.6 mph - N/A   Clear
5:54 AM 12.0 °F 1.5 °F 7.0 °F 80% 30.26 in 10.0 mi SW 6.9 mph - N/A   Clear
6:54 AM 15.1 °F 5.2 °F 9.0 °F 77% 30.25 in 10.0 mi SSW 6.9 mph - N/A   Clear
7:54 AM 15.1 °F 6.4 °F 9.0 °F 77% 30.25 in 10.0 mi SSW 5.8 mph - N/A   Clear
8:54 AM 14.0 °F 8.2 °F 8.1 °F 77% 30.25 in 10.0 mi South 3.5 mph - N/A   Clear
9:54 AM 26.1 °F 18.4 °F 14.0 °F 60% 30.25 in 10.0 mi South 6.9 mph - 0.02 in   Clear
10:54 AM 30.0 °F 20.0 °F 15.1 °F 54% 30.21 in 10.0 mi South 12.7 mph - 0.03 in   Clear
11:54 AM 32.0 °F - 17.1 °F 54% 30.16 in - North - - N/A   Clear
12:54 PM 35.1 °F 25.9 °F 19.0 °F 52% 30.11 in 10.0 mi South 13.8 mph - N/A   Clear
1:54 PM 36.0 °F 26.0 °F 19.9 °F 52% 30.05 in 10.0 mi South 17.3 mph 26.5 mph N/A   Clear
2:54 PM 37.0 °F 27.0 °F 21.0 °F 52% 30.03 in 10.0 mi South 18.4 mph 25.3 mph N/A   Clear
3:54 PM 36.0 °F 25.0 °F 21.9 °F 57% 30.01 in 10.0 mi South 20.7 mph 27.6 mph N/A   Clear
4:54 PM 35.1 °F 24.8 °F 23.0 °F 61% 29.99 in 10.0 mi South 17.3 mph - N/A   Clear
5:54 PM 36.0 °F 25.3 °F 23.0 °F 59% 29.98 in 10.0 mi South 19.6 mph - N/A   Clear
6:54 PM 37.0 °F 25.6 °F 24.1 °F 59% 29.97 in 10.0 mi South 24.2 mph 32.2 mph N/A   Clear
7:54 PM 39.0 °F 28.3 °F 28.0 °F 65% 29.96 in 10.0 mi SSW 24.2 mph 31.1 mph N/A   Clear
8:54 PM 39.9 °F 29.2 °F 30.0 °F 68% 29.95 in 10.0 mi SSW 25.3 mph 33.4 mph N/A   Clear
9:54 PM 39.0 °F 28.8 °F 30.9 °F 73% 29.96 in 10.0 mi SSW 21.9 mph 31.1 mph N/A   Clear
10:54 PM 39.0 °F 29.6 °F 30.9 °F 73% 29.95 in 10.0 mi SSW 18.4 mph - N/A   Clear
11:54 PM 37.9 °F 28.5 °F 32.0 °F 79% 29.94 in 10.0 mi SSW 17.3 mph - N/A   Clear